| time (UTC) | temp C | wind direction | speed KPH | gust KPH | rain 1hr cm | rain 24hr cm | rain mn cm | humidity % | barometer mb |
| 20260507141303 | 17 | 202 | 20.9 | 25.7 | 0.00 | 0.00 | 0.00 | 100 | 1010.8 |
| 20260507135306 | 17 | 180 | 19.3 | 27.4 | 0.00 | 0.00 | 0.00 | 100 | 1010.9 |
| 20260507133302 | 17 | 90 | 17.7 | 25.7 | 0.00 | 0.00 | 0.00 | 100 | 1010.9 |
| 20260507131302 | 17 | 225 | 25.7 | 32.2 | 0.00 | 0.00 | 0.00 | 100 | 1011.0 |
| 20260507125306 | 17 | 135 | 16.1 | 25.7 | 0.00 | 0.00 | 0.00 | 100 | 1011.2 |
| 20260507115217 | 18 | 180 | 24.1 | 35.4 | 0.00 | 0.00 | 0.00 | 100 | 1011.5 |
| 20260507112215 | 18 | 90 | 25.7 | 35.4 | 0.00 | 0.00 | 0.00 | 100 | 1011.3 |
| 20260507111215 | 17 | 135 | 19.3 | 29.0 | 0.00 | 0.00 | 0.00 | 100 | 1011.5 |
| 20260507102211 | 17 | 180 | 24.1 | 30.6 | 0.00 | 0.00 | 0.00 | 100 | 1011.7 |
| 20260507101210 | 17 | 135 | 33.8 | 51.5 | 0.00 | 0.00 | 0.00 | 100 | 1011.8 |
| 20260507100210 | 18 | 90 | 16.1 | 25.7 | 0.00 | 0.00 | 0.00 | 100 | 1012.1 |
| 20260507095211 | 17 | 135 | 20.9 | 33.8 | 0.00 | 0.00 | 0.00 | 100 | 1011.9 |
| 20260507094208 | 17 | 315 | 17.7 | 25.7 | 0.00 | 0.00 | 0.00 | 100 | 1011.9 |
| 20260507093208 | 17 | 90 | 16.1 | 27.4 | 0.00 | 0.00 | 0.00 | 100 | 1012.1 |
| 20260507085205 | 17 | 180 | 25.7 | 37.0 | 0.00 | 0.00 | 0.00 | 100 | 1012.2 |
| 20260507084205 | 17 | 158 | 24.1 | 32.2 | 0.00 | 0.00 | 0.00 | 100 | 1012.2 |
| 20260507080203 | 17 | 0 | 25.7 | 38.6 | 0.00 | 0.00 | 0.00 | 100 | 1012.3 |
| 20260507075204 | 17 | 292 | 14.5 | 19.3 | 0.00 | 0.00 | 0.00 | 100 | 1012.0 |
| 20260507074203 | 17 | 141 | 17.7 | 24.1 | 0.00 | 0.00 | 0.00 | 100 | 1012.4 |
| 20260507072204 | 16 | 315 | 24.1 | 30.6 | 0.00 | 0.00 | 0.00 | 100 | 1012.1 |
| 20260507071202 | 16 | 130 | 20.9 | 27.4 | 0.00 | 0.00 | 0.00 | 100 | 1012.2 |
| 20260507070202 | 16 | 135 | 11.3 | 16.1 | 0.00 | 0.00 | 0.00 | 100 | 1012.2 |
| 20260507064202 | 16 | 225 | 12.9 | 22.5 | 0.00 | 0.00 | 0.00 | 100 | 1011.9 |
| 20260507062203 | 16 | 90 | 12.9 | 27.4 | 0.00 | 0.00 | 0.00 | 100 | 1012.0 |
| 20260507061204 | 16 | 0 | 25.7 | 37.0 | 0.00 | 0.00 | 0.00 | 100 | 1011.9 |
| 20260507060204 | 15 | 315 | 25.7 | 33.8 | 0.00 | 0.00 | 0.00 | 100 | 1011.7 |
| 20260507055205 | 15 | 141 | 29.0 | 40.2 | 0.00 | 0.00 | 0.00 | 100 | 1011.6 |
| 20260507054204 | 15 | 180 | 24.1 | 35.4 | 0.00 | 0.00 | 0.00 | 100 | 1011.3 |
| 20260507052203 | 15 | 90 | 24.1 | 40.2 | 0.00 | 0.00 | 0.00 | 100 | 1011.5 |
| 20260507044203 | 15 | 130 | 16.1 | 25.7 | 0.00 | 0.00 | 0.00 | 100 | 1011.7 |
| 20260507043203 | 15 | 90 | 12.9 | 16.1 | 0.00 | 0.00 | 0.00 | 100 | 1011.8 |
| 20260507041204 | 15 | 0 | 9.7 | 16.1 | 0.00 | 0.00 | 0.00 | 100 | 1011.7 |
| 20260507034205 | 15 | 90 | 12.9 | 22.5 | 0.00 | 0.00 | 0.00 | 100 | 1011.9 |
| 20260507023203 | 14 | 315 | 8.0 | 17.7 | 0.00 | 0.00 | 0.00 | 100 | 1013.5 |
| 20260507021203 | 14 | 248 | 14.5 | 17.7 | 0.00 | 0.00 | 0.00 | 100 | 1013.4 |
| 20260507020203 | 14 | 141 | 11.3 | 17.7 | 0.00 | 0.00 | 0.00 | 100 | 1013.4 |
| 20260507015203 | 14 | 90 | 11.3 | 12.9 | 0.00 | 0.00 | 0.00 | 100 | 1013.4 |
| 20260507013202 | 14 | 180 | 8.0 | 12.9 | 0.00 | 0.00 | 0.00 | 100 | 1013.5 |
| 20260507010203 | 14 | 90 | 6.4 | 14.5 | 0.00 | 0.00 | 0.00 | 100 | 1013.4 |
| 20260507005203 | 14 | 315 | 4.8 | 6.4 | 0.00 | 0.00 | 0.00 | 100 | 1013.6 |
| 20260507004201 | 14 | 225 | 8.0 | 12.9 | 0.00 | 0.00 | 0.00 | 100 | 1013.6 |
| 20260507003203 | 14 | 180 | 6.4 | 8.0 | 0.00 | 0.00 | 0.00 | 100 | 1013.5 |
| 20260506233203 | 14 | 270 | 14.5 | 22.5 | 0.00 | 0.00 | 0.00 | 100 | 1014.4 |
| 20260506232205 | 14 | 225 | 9.7 | 14.5 | 0.00 | 0.00 | 0.00 | 100 | 1014.8 |
| 20260506231203 | 14 | 0 | 8.0 | 16.1 | 0.00 | 0.00 | 0.00 | 100 | 1015.1 |
| 20260506230203 | 14 | 0 | 12.9 | 24.1 | 0.00 | 0.00 | 0.00 | 100 | 1015.1 |
| 20260506224202 | 14 | 0 | 11.3 | 14.5 | 0.00 | 0.00 | 0.00 | 100 | 1015.4 |
| 20260506222203 | 14 | 0 | 17.7 | 19.3 | 0.00 | 0.00 | 0.00 | 100 | 1014.9 |
| 20260506211202 | 15 | 270 | 12.9 | 17.7 | 0.00 | 0.00 | 0.00 | 100 | 1014.7 |
| 20260506210204 | 15 | 270 | 3.2 | 6.4 | 0.00 | 0.00 | 0.00 | 100 | 1015.1 |
| 20260506203203 | 15 | 135 | 6.4 | 11.3 | 0.00 | 0.00 | 0.00 | 100 | 1014.9 |
| 20260506201203 | 15 | 112 | 8.0 | 12.9 | 0.00 | 0.00 | 0.00 | 100 | 1014.8 |
| 20260506200202 | 15 | 90 | 4.8 | 6.4 | 0.00 | 0.00 | 0.00 | 100 | 1014.7 |
| 20260506191117 | 16 | 90 | 11.3 | 17.7 | 0.00 | 0.00 | 0.00 | 100 | 1013.8 |
| 20260506190116 | 17 | 135 | 3.2 | 8.0 | 0.00 | 0.00 | 0.00 | 100 | 1014.0 |
| 20260506185115 | 17 | 292 | 14.5 | 17.7 | 0.00 | 0.00 | 0.00 | 100 | 1013.5 |
| 20260506182115 | 17 | 225 | 12.9 | 17.7 | 0.00 | 0.00 | 0.00 | 100 | 1013.6 |
| 20260506181112 | 17 | 180 | 9.7 | 16.1 | 0.00 | 0.00 | 0.00 | 100 | 1014.0 |
| 20260506174202 | 18 | 225 | 16.1 | 24.1 | 0.00 | 0.00 | 0.00 | 100 | 1014.8 |
| 20260506171108 | 18 | 158 | 8.0 | 11.3 | 0.00 | 0.00 | 0.00 | 100 | 1014.8 |
| 20260506170107 | 19 | 0 | 8.0 | 12.9 | 0.00 | 0.00 | 0.00 | 100 | 1014.8 |
| 20260506164108 | 20 | 135 | 9.7 | 14.5 | 0.00 | 0.00 | 0.00 | 100 | 1014.2 |
| 20260506161105 | 21 | 158 | 6.4 | 8.0 | 0.00 | 0.00 | 0.00 | 100 | 1014.2 |
| 20260506160104 | 21 | 135 | 11.3 | 14.5 | 0.00 | 0.00 | 0.00 | 100 | 1014.0 |
| 20260506155104 | 22 | 135 | 4.8 | 6.4 | 0.00 | 0.00 | 0.00 | 100 | 1014.4 |
| 20260506145102 | 22 | 135 | 11.3 | 12.9 | 0.00 | 0.00 | 0.00 | 100 | 1015.2 |
| 20260506144103 | 22 | 135 | 6.4 | 6.4 | 0.00 | 0.00 | 0.00 | 100 | 1015.2 |